TimeCDT,TemperatureF,Dew PointF,Humidity,Sea Level PressureIn,VisibilityMPH,Wind Direction,Wind SpeedMPH,Gust SpeedMPH,PrecipitationIn,Events,Conditions,WindDirDegrees,DateUTC
12:57 AM,53.1,48.0,83,29.95,10.0,Calm,Calm,-,N/A,,Clear,0,2012-10-03 05:57:00
1:57 AM,53.1,48.0,83,29.96,10.0,Calm,Calm,-,N/A,,Clear,0,2012-10-03 06:57:00
2:57 AM,52.0,48.0,86,29.96,10.0,Calm,Calm,-,N/A,,Clear,0,2012-10-03 07:57:00
4:57 AM,51.8,48.2,88,29.98,1.8,SE,3.5,-,N/A,,Clear,130,2012-10-03 09:57:00
4:59 AM,51.1,48.9,92,29.97,1.5,SE,4.6,-,N/A,,Clear,130,2012-10-03 09:59:00
5:13 AM,51.8,48.2,88,29.99,1.0,ESE,4.6,-,N/A,,Clear,120,2012-10-03 10:13:00
5:18 AM,51.8,48.2,88,29.99,1.2,East,3.5,-,N/A,,Clear,100,2012-10-03 10:18:00
5:26 AM,51.8,48.2,88,29.99,5.0,Calm,Calm,-,N/A,,Clear,0,2012-10-03 10:26:00
5:43 AM,51.8,50.0,94,30.00,1.8,ESE,3.5,-,N/A,,Clear,120,2012-10-03 10:43:00
5:57 AM,51.8,50.0,94,30.00,3.0,ESE,3.5,-,N/A,,Clear,110,2012-10-03 10:57:00
5:59 AM,52.0,50.0,93,29.99,3.0,ESE,3.5,-,N/A,,Clear,120,2012-10-03 10:59:00
6:05 AM,51.8,50.0,94,30.00,1.8,SE,4.6,-,N/A,,Clear,140,2012-10-03 11:05:00
6:10 AM,51.8,50.0,94,30.00,3.0,SE,4.6,-,N/A,,Clear,140,2012-10-03 11:10:00
6:57 AM,53.1,48.9,86,29.99,7.0,ESE,3.5,-,N/A,,Clear,120,2012-10-03 11:57:00
7:03 AM,53.6,48.2,82,30.01,2.5,SE,4.6,-,N/A,,Clear,130,2012-10-03 12:03:00
7:10 AM,53.6,48.2,82,30.01,1.8,ESE,3.5,-,N/A,,Clear,120,2012-10-03 12:10:00
7:13 AM,53.6,48.2,82,30.01,7.0,ESE,4.6,-,N/A,,Clear,120,2012-10-03 12:13:00
7:57 AM,54.0,48.9,83,30.00,10.0,SE,4.6,-,N/A,,Clear,130,2012-10-03 12:57:00
8:57 AM,55.9,51.1,84,30.01,10.0,SE,4.6,-,N/A,,Clear,130,2012-10-03 13:57:00
9:00 AM,55.4,51.8,88,30.03,1.0,SE,4.6,-,N/A,,Haze,130,2012-10-03 14:00:00
9:06 AM,57.2,51.8,82,30.03,10.0,SE,5.8,-,N/A,,Clear,140,2012-10-03 14:06:00
9:57 AM,66.0,52.0,60,30.02,10.0,South,9.2,-,N/A,,Clear,190,2012-10-03 14:57:00
10:57 AM,71.1,48.9,45,30.02,10.0,SW,9.2,-,N/A,,Clear,230,2012-10-03 15:57:00
11:57 AM,73.9,48.0,40,30.04,10.0,WSW,8.1,-,N/A,,Unknown,240,2012-10-03 16:57:00
12:57 PM,75.0,48.9,40,30.02,10.0,SW,10.4,-,N/A,,Partly Cloudy,230,2012-10-03 17:57:00
1:57 PM,73.0,48.0,41,30.00,10.0,SW,11.5,-,N/A,,Mostly Cloudy,230,2012-10-03 18:57:00
2:57 PM,75.0,50.0,41,29.98,10.0,SSW,19.6,-,N/A,,Overcast,200,2012-10-03 19:57:00
3:57 PM,75.9,50.0,40,29.98,10.0,South,15.0,19.6,N/A,,Mostly Cloudy,180,2012-10-03 20:57:00
4:57 PM,75.0,50.0,41,29.99,10.0,South,18.4,-,N/A,,Partly Cloudy,190,2012-10-03 21:57:00
5:57 PM,73.9,52.0,46,29.99,10.0,South,13.8,-,N/A,,Clear,190,2012-10-03 22:57:00
6:57 PM,70.0,53.1,55,30.00,10.0,SSE,8.1,-,N/A,,Clear,160,2012-10-03 23:57:00
7:57 PM,66.9,53.1,61,30.02,10.0,SSE,5.8,-,N/A,,Clear,150,2012-10-04 00:57:00
8:57 PM,64.0,54.0,70,30.04,10.0,SE,5.8,-,N/A,,Clear,140,2012-10-04 01:57:00
9:57 PM,63.0,54.0,72,30.06,10.0,SE,5.8,-,N/A,,Scattered Clouds,140,2012-10-04 02:57:00
10:57 PM,62.1,54.0,75,30.08,10.0,SSE,6.9,-,N/A,,Clear,150,2012-10-04 03:57:00
11:57 PM,61.0,54.0,78,30.05,10.0,SE,8.1,-,N/A,,Clear,140,2012-10-04 04:57:00